Terminal Aerodrome Forecast
Issued by NWS Aberdeen, SD

Home | Current Version | Previous Version | Text Only | Print | Product List | Glossary On
Versions: 1 2 3 4 5 6 7 8 9 10 11 12 13 14 15 16 17 18 19 20 21 22 23 24 25 26 27 28 29 30 31 32 33 34 35 36 37 38 39 40 41 42 43 44 45 46 47 48 49 50
000
FTAK31 PAFA 231604 AAA
TAFABR
TAF AMD
PABR 231604Z 2316/2412 06011KT P6SM -RA SCT004 BKN029
      TEMPO 2316/2318 5SM -RA BR BKN004
     FM231800 03011KT 1SM -RA BR OVC004
     FM232100 03013KT 3SM -RA BR OVC005
     FM240400 04015KT P6SM VCSH OVC007=

USA.gov is the U.S. government's official web portal to all federal, state and local government web resources and services.